period_start,C,m1,H,J0,J1,J2,J3,J4,J5,JA,JB,JC,JD,JJ,JK,JN,#
2017-06-22 00:00:09,0.11,0.22,0.00,26.10,29.70,32.13,13.58,41.63,1010.49,2021.99,3471.55,3012.56,3443.75,599.88,586.33,9.70,0000 0000 0000 0000 000000
2017-06-22 00:05:11,0.06,0.23,0.00,26.11,29.70,32.14,13.59,41.63,1010.66,2021.98,3470.16,3011.34,3442.48,599.97,586.34,9.75,0000 0000 0000 0000 000000
2017-06-22 00:10:12,0.04,0.23,0.00,26.11,29.72,32.15,13.65,41.65,1010.71,2021.94,3469.32,3010.61,3441.61,600.34,586.70,9.80,0000 0000 0000 0000 000000
2017-06-22 00:15:13,0.01,0.23,0.00,26.14,29.73,32.18,13.53,41.68,1010.67,2021.93,3468.90,3010.01,3441.01,599.73,586.07,9.85,0000 0000 0000 0000 000000
2017-06-22 00:20:14,0.03,0.23,0.00,26.16,29.75,32.18,13.62,41.65,1010.76,2021.84,3468.12,3009.61,3440.48,600.18,586.52,9.90,0000 0000 0000 0000 000000
2017-06-22 00:25:15,0.01,0.23,0.00,26.18,29.75,32.20,13.62,41.63,1010.75,2021.70,3467.80,3009.01,3439.94,600.05,586.46,9.95,0000 0000 0000 0000 000000
2017-06-22 00:30:16,0.01,0.23,0.00,26.19,29.77,32.21,13.64,41.71,1010.76,2021.52,3467.02,3008.68,3439.21,600.09,586.36,10.00,0000 0000 0000 0000 000000
2017-06-22 00:35:18,-0.00,0.23,0.00,26.21,29.77,32.22,13.54,41.77,1010.77,2021.25,3466.72,3008.10,3439.00,599.60,585.90,10.05,0000 0000 0000 0000 000000
2017-06-22 00:40:19,0.00,0.23,0.00,26.23,29.79,32.24,13.65,41.76,1010.77,2021.15,3466.08,3008.00,3438.95,600.31,586.49,10.10,0000 0000 0000 0000 000000
2017-06-22 00:45:20,0.00,0.23,0.00,26.25,29.80,32.25,13.62,41.62,1010.79,2021.03,3466.00,3008.00,3438.32,599.88,586.03,10.15,0000 0000 0000 0000 000000
2017-06-22 00:50:21,0.00,0.23,0.00,26.26,29.82,32.26,13.61,41.67,1011.06,2021.03,3466.00,3007.94,3438.04,600.06,586.34,10.20,0000 0000 0000 0000 000000
2017-06-22 00:55:23,0.01,0.23,0.00,26.27,29.84,32.28,13.58,41.64,1011.00,2021.01,3465.87,3007.55,3438.00,599.99,586.25,10.25,0000 0000 0000 0000 000000
2017-06-22 01:00:24,0.01,0.23,0.00,26.29,29.85,32.29,13.62,41.63,1011.04,2021.00,3465.65,3007.11,3437.98,599.84,586.13,10.30,0000 0000 0000 0000 000000
2017-06-22 01:05:25,0.01,0.24,0.00,26.31,29.87,32.30,13.66,41.64,1011.05,2021.00,3465.13,3007.01,3437.72,599.97,586.21,10.35,0000 0000 0000 0000 000000
2017-06-22 01:10:27,0.00,0.24,0.00,26.34,29.88,32.32,13.59,41.66,1010.87,2021.00,3465.01,3007.00,3437.24,599.79,585.84,10.40,0000 0000 0000 0000 000000
2017-06-22 01:15:28,0.00,0.24,0.00,26.36,29.90,32.34,13.63,41.53,1010.99,2021.00,3465.00,3007.00,3437.04,600.44,586.42,10.45,0000 0000 0000 0000 000000
2017-06-22 01:20:29,-0.00,0.24,0.00,26.37,29.92,32.35,13.60,41.65,1010.81,2020.98,3465.00,3007.00,3437.00,599.59,585.69,10.50,0000 0000 0000 0000 000000
2017-06-22 01:25:30,0.00,0.24,0.00,26.38,29.93,32.37,13.56,41.57,1011.07,2020.94,3464.99,3006.97,3437.00,599.85,585.95,10.55,0000 0000 0000 0000 000000
2017-06-22 01:30:32,-0.00,0.24,0.00,26.40,29.95,32.39,13.62,41.73,1011.22,2020.84,3464.91,3006.86,3436.98,599.79,585.90,10.60,0000 0000 0000 0000 000000
2017-06-22 01:35:33,-0.01,0.24,0.00,26.42,29.96,32.40,13.58,41.71,1011.15,2020.63,3464.67,3006.43,3436.84,599.68,585.73,10.65,0000 0000 0000 0000 000000
2017-06-22 01:40:34,0.01,0.24,0.00,26.44,29.98,32.42,13.54,41.64,1011.24,2020.39,3464.22,3006.10,3436.46,599.83,585.93,10.70,0000 0000 0000 0000 000000
2017-06-22 01:45:36,-0.02,0.23,0.00,26.45,30.00,32.43,13.66,41.64,1011.22,2020.12,3464.05,3006.01,3436.06,599.94,586.11,10.75,0000 0000 0000 0000 000000
2017-06-22 01:50:37,0.00,0.23,0.00,26.47,30.01,32.46,13.59,41.68,1011.24,2020.08,3464.00,3006.00,3436.00,599.87,585.85,10.80,0000 0000 0000 0000 000000
2017-06-22 01:55:38,-0.00,0.23,0.00,26.47,30.02,32.46,13.58,41.67,1011.25,2020.02,3464.00,3006.00,3435.99,600.13,586.11,10.85,0000 0000 0000 0000 000000
2017-06-22 02:00:39,0.00,0.23,0.00,26.49,30.05,32.47,13.56,41.57,1011.25,2020.00,3463.92,3005.97,3435.96,600.17,586.15,10.90,0000 0000 0000 0000 000000
2017-06-22 02:05:40,0.01,0.23,0.00,26.50,30.06,32.49,13.60,41.60,1011.26,2020.00,3463.52,3005.86,3435.81,600.00,585.70,10.95,0000 0000 0000 0000 000000
2017-06-22 02:10:41,0.02,0.24,0.00,26.52,30.07,32.51,13.62,41.65,1011.35,2020.00,3463.11,3005.46,3435.30,600.13,586.11,11.00,0000 0000 0000 0000 000000
2017-06-22 02:15:42,0.01,0.24,0.00,26.52,30.09,32.53,13.65,41.73,1011.68,2020.00,3463.02,3005.11,3435.05,600.26,586.33,11.05,0000 0000 0000 0000 000000
2017-06-22 02:20:43,0.00,0.24,0.00,26.53,30.10,32.53,13.62,41.63,1011.71,2020.00,3462.98,3005.01,3435.00,600.06,586.26,11.10,0000 0000 0000 0000 000000
2017-06-22 02:25:45,0.00,0.24,0.00,26.55,30.12,32.56,13.62,41.67,1011.62,2020.00,3462.94,3005.00,3434.99,599.77,585.73,11.15,0000 0000 0000 0000 000000
2017-06-22 02:30:46,0.00,0.24,0.00,26.55,30.13,32.57,13.55,41.67,1011.27,2019.98,3462.52,3005.00,3434.95,599.72,585.63,11.20,0000 0000 0000 0000 000000
2017-06-22 02:35:47,0.02,0.24,0.00,26.57,30.15,32.57,13.53,41.64,1011.27,2019.96,3462.07,3004.93,3434.47,599.86,585.63,11.25,0000 0000 0000 0000 000000
2017-06-22 02:40:48,0.00,0.24,0.00,26.57,30.15,32.60,13.61,41.63,1011.29,2019.90,3462.00,3004.80,3434.07,599.78,585.76,11.30,0000 0000 0000 0000 000000
2017-06-22 02:45:50,0.00,0.24,0.00,26.57,30.17,32.61,13.59,41.64,1011.31,2019.88,3462.00,3004.50,3434.02,600.01,585.78,11.35,0000 0000 0000 0000 000000
2017-06-22 02:50:51,-0.02,0.24,0.00,26.58,30.18,32.62,13.59,41.70,1011.30,2019.63,3461.98,3004.10,3434.00,599.85,585.68,11.40,0000 0000 0000 0000 000000
2017-06-22 02:55:52,-0.00,0.24,0.00,26.60,30.20,32.63,13.58,41.61,1011.43,2019.48,3461.98,3004.03,3434.00,600.07,585.88,11.45,0000 0000 0000 0000 000000
2017-06-22 03:00:53,-0.02,0.24,0.00,26.61,30.20,32.64,13.56,41.71,1011.63,2019.33,3461.77,3004.02,3433.98,600.12,586.09,11.50,0000 0000 0000 0000 000000
2017-06-22 03:05:55,-0.00,0.24,0.00,26.62,30.22,32.66,13.60,41.68,1011.59,2019.11,3461.32,3004.00,3433.89,599.84,585.64,11.55,0000 0000 0000 0000 000000
2017-06-22 03:10:56,0.00,0.24,0.00,26.63,30.22,32.67,13.51,41.61,1011.30,2019.02,3461.02,3004.00,3433.35,599.55,585.29,11.60,0000 0000 0000 0000 000000
2017-06-22 03:15:57,0.00,0.24,0.00,26.64,30.24,32.68,13.64,41.66,1011.26,2019.03,3461.00,3003.99,3433.10,600.08,585.73,11.65,0000 0000 0000 0000 000000
2017-06-22 03:20:58,0.00,0.24,0.00,26.65,30.25,32.69,13.60,41.71,1011.32,2019.01,3461.00,3003.96,3433.03,600.06,585.85,11.70,0000 0000 0000 0000 000000
2017-06-22 03:26:00,0.00,0.24,0.00,26.67,30.25,32.70,13.56,41.72,1011.47,2019.00,3460.99,3003.85,3433.00,599.89,585.59,11.75,0000 0000 0000 0000 000000
2017-06-22 03:31:01,0.01,0.24,0.00,26.66,30.27,32.70,13.63,41.62,1011.44,2019.00,3460.95,3003.64,3433.00,599.99,585.75,11.80,0000 0000 0000 0000 000000
2017-06-22 03:36:02,0.01,0.24,0.00,26.67,30.27,32.72,13.59,41.65,1011.47,2019.00,3460.73,3003.15,3432.97,599.84,585.59,11.85,0000 0000 0000 0000 000000
2017-06-22 03:41:03,0.00,0.24,0.00,26.68,30.29,32.72,13.62,41.68,1011.51,2019.00,3460.64,3003.07,3432.97,600.29,585.97,11.91,0000 0000 0000 0000 000000
2017-06-22 03:46:04,0.00,0.24,0.00,26.69,30.30,32.73,13.64,41.73,1011.69,2018.99,3460.54,3003.04,3432.96,599.93,585.86,11.96,0000 0000 0000 0000 000000
2017-06-22 03:51:06,0.00,0.24,0.00,26.69,30.30,32.73,13.60,41.71,1011.44,2018.99,3460.37,3003.05,3432.90,599.97,585.66,12.01,0000 0000 0000 0000 000000
2017-06-22 03:56:07,0.01,0.24,0.00,26.70,30.32,32.75,13.59,41.71,1011.28,2018.99,3460.04,3003.00,3432.49,599.91,585.52,12.06,0000 0000 0000 0000 000000
2017-06-22 04:01:08,0.00,0.24,0.00,26.70,30.32,32.75,13.58,41.65,1011.26,2018.99,3460.00,3003.00,3432.21,599.96,585.56,12.11,0000 0000 0000 0000 000000
2017-06-22 04:06:10,0.00,0.24,0.00,26.71,30.33,32.77,13.56,41.59,1011.25,2018.97,3460.00,3003.00,3432.02,600.00,585.53,12.16,0000 0000 0000 0000 000000
2017-06-22 04:11:11,0.00,0.24,0.00,26.72,30.35,32.77,13.66,41.71,1011.26,2018.98,3459.95,3002.98,3432.00,600.18,585.74,12.21,0000 0000 0000 0000 000000
2017-06-22 04:16:12,0.00,0.24,0.00,26.74,30.35,32.77,13.63,41.67,1011.37,2018.91,3459.78,3002.86,3431.99,600.20,585.82,12.26,0000 0000 0000 0000 000000
2017-06-22 04:21:13,0.01,0.24,0.00,26.75,30.36,32.80,13.67,41.72,1011.44,2018.89,3459.38,3002.60,3431.97,600.49,585.95,12.31,0000 0000 0000 0000 000000
2017-06-22 04:26:14,-0.01,0.24,0.00,26.75,30.37,32.80,13.56,41.67,1011.60,2018.77,3459.10,3002.29,3431.91,599.81,585.65,12.36,0000 0000 0000 0000 000000
2017-06-22 04:31:16,0.01,0.24,0.00,26.76,30.37,32.81,13.60,41.63,1011.71,2018.68,3459.00,3002.06,3431.67,600.11,585.91,12.41,0000 0000 0000 0000 000000
2017-06-22 04:36:17,0.00,0.24,0.00,26.77,30.39,32.81,13.61,41.73,1011.70,2018.50,3459.00,3002.00,3431.16,599.98,585.72,12.46,0000 0000 0000 0000 000000
2017-06-22 04:41:18,-0.03,0.24,0.00,26.77,30.40,32.82,13.58,41.73,1011.66,2018.27,3458.96,3002.00,3431.02,599.74,585.27,12.51,0000 0000 0000 0000 000000
2017-06-22 04:46:19,-0.00,0.24,0.00,26.77,30.40,32.83,13.63,41.64,1011.47,2018.27,3458.95,3002.00,3431.01,599.98,585.67,12.56,0000 0000 0000 0000 000000
2017-06-22 04:51:21,0.00,0.24,0.00,26.77,30.40,32.84,13.52,41.78,1011.26,2018.17,3458.86,3002.00,3431.00,599.71,585.15,12.61,0000 0000 0000 0000 000000
2017-06-22 04:56:22,0.01,0.24,0.00,26.77,30.41,32.84,13.62,41.73,1011.26,2018.14,3458.33,3002.00,3431.00,599.95,585.43,12.66,0000 0000 0000 0000 000000
2017-06-22 05:01:23,-0.01,0.24,0.00,26.77,30.42,32.84,13.63,41.82,1011.25,2018.08,3458.02,3001.98,3430.99,600.20,585.60,12.71,0000 0000 0000 0000 000000
2017-06-22 05:06:25,0.00,0.24,0.00,26.79,30.42,32.85,13.53,41.57,1011.25,2018.06,3458.00,3001.96,3430.94,600.13,585.53,12.76,0000 0000 0000 0000 000000
2017-06-22 05:11:26,0.01,0.24,0.00,26.79,30.42,32.86,13.51,41.69,1011.25,2018.02,3457.98,3001.58,3430.56,600.05,585.36,12.81,0000 0000 0000 0000 000000
2017-06-22 05:16:27,0.01,0.24,0.00,26.80,30.42,32.87,13.61,41.58,1011.24,2018.00,3457.92,3001.26,3430.22,599.96,585.25,12.86,0000 0000 0000 0000 000000
2017-06-22 05:21:29,0.01,0.24,0.00,26.80,30.44,32.87,13.55,41.61,1011.24,2018.02,3457.71,3001.08,3430.05,600.05,585.58,12.91,0000 0000 0000 0000 000000
2017-06-22 05:26:30,-0.00,0.24,0.00,26.80,30.45,32.88,13.59,41.63,1011.24,2018.01,3457.62,3001.11,3430.06,599.83,585.19,12.96,0000 0000 0000 0000 000000
2017-06-22 05:31:31,0.01,0.24,0.00,26.80,30.45,32.87,13.56,41.63,1011.24,2018.01,3457.21,3001.05,3430.02,600.12,585.49,13.01,0000 0000 0000 0000 000000
2017-06-22 05:36:32,0.00,0.24,0.00,26.80,30.45,32.88,13.61,41.62,1011.24,2018.01,3457.01,3001.00,3430.00,600.14,585.36,13.06,0000 0000 0000 0000 000000
2017-06-22 05:41:33,0.00,0.24,0.00,26.81,30.45,32.88,13.54,41.61,1011.24,2018.02,3457.00,3001.01,3430.00,599.49,584.77,13.11,0000 0000 0000 0000 000000
2017-06-22 05:46:34,0.00,0.24,0.00,26.82,30.45,32.90,13.64,41.76,1011.25,2018.01,3457.00,3001.00,3429.98,600.38,585.65,13.16,0000 0000 0000 0000 000000
2017-06-22 05:51:35,0.00,0.24,0.00,26.82,30.47,32.89,13.60,41.68,1011.27,2018.00,3456.99,3001.00,3429.98,600.08,585.32,13.21,0000 0000 0000 0000 000000
2017-06-22 05:56:37,0.00,0.24,0.00,26.82,30.47,32.89,13.62,41.72,1011.25,2018.00,3456.97,3001.00,3429.92,600.28,585.57,13.26,0000 0000 0000 0000 000000
2017-06-22 06:01:38,0.00,0.24,0.00,26.82,30.47,32.90,13.64,41.82,1010.92,2018.00,3456.84,3000.97,3429.69,599.91,585.08,13.31,0000 0000 0000 0000 000000
2017-06-22 06:06:39,0.01,0.24,0.00,26.81,30.47,32.90,13.62,41.78,1011.21,2018.00,3456.32,3000.93,3429.33,600.22,585.62,13.36,0000 0000 0000 0000 000000
2017-06-22 06:11:41,0.01,0.24,0.00,26.80,30.47,32.91,13.59,41.72,1011.21,2018.00,3456.04,3000.81,3429.06,599.87,585.17,13.41,0000 0000 0000 0000 000000
2017-06-22 06:16:42,0.00,0.24,0.00,26.80,30.47,32.92,13.63,41.65,1011.02,2018.00,3456.00,3000.58,3429.01,600.08,585.33,13.46,0000 0000 0000 0000 000000
2017-06-22 06:21:43,0.00,0.24,0.00,26.79,30.47,32.92,13.60,41.60,1011.05,2018.00,3456.00,3000.53,3429.00,600.01,585.27,13.51,0000 0000 0000 0000 000000
2017-06-22 06:26:44,-0.00,0.24,0.00,26.78,30.47,32.92,13.62,41.58,1010.77,2018.00,3456.00,3000.55,3429.00,599.94,585.06,13.56,0000 0000 0000 0000 000000
2017-06-22 06:31:46,0.01,0.24,0.00,26.77,30.47,32.92,13.60,41.55,1010.76,2018.00,3456.00,3000.41,3429.00,600.21,585.35,13.61,0000 0000 0000 0000 000000
2017-06-22 06:36:47,0.00,0.24,0.00,26.77,30.47,32.93,13.58,41.63,1010.74,2018.00,3455.98,3000.10,3429.00,600.07,585.24,13.66,0000 0000 0000 0000 000000
2017-06-22 06:41:49,0.00,0.24,0.00,26.75,30.47,32.92,13.56,41.57,1010.70,2018.00,3455.95,3000.05,3428.99,599.94,585.19,13.71,0000 0000 0000 0000 000000
2017-06-22 06:46:49,0.00,0.24,0.00,26.74,30.47,32.92,13.57,41.59,1010.44,2018.00,3455.88,3000.02,3428.99,599.78,584.68,13.76,0000 0000 0000 0000 000000
2017-06-22 06:51:51,-0.00,0.24,0.00,26.75,30.47,32.93,13.54,41.64,1010.52,2018.00,3455.78,3000.02,3428.98,600.16,585.22,13.81,0000 0000 0000 0000 000000
2017-06-22 06:56:52,-0.00,0.24,0.00,26.72,30.47,32.93,13.56,41.63,1010.73,2018.00,3455.80,3000.08,3428.99,600.06,585.29,13.86,0000 0000 0000 0000 000000
2017-06-22 07:01:53,0.00,0.24,0.00,26.72,30.47,32.93,13.61,41.63,1010.66,2018.00,3455.34,3000.04,3428.99,599.83,585.03,13.91,0000 0000 0000 0000 000000
2017-06-22 07:06:55,0.00,0.25,0.00,26.70,30.45,32.92,13.61,41.57,1010.29,2018.00,3455.08,3000.02,3428.97,599.96,584.93,13.96,0000 0000 0000 0000 000000
2017-06-22 07:11:56,0.00,0.25,0.00,26.70,30.45,32.92,13.67,41.55,1010.28,2018.00,3455.08,3000.02,3428.97,599.96,584.98,14.01,0000 0000 0000 0000 000000
2017-06-22 07:16:57,-0.00,0.25,0.00,26.69,30.45,32.92,13.57,41.51,1010.27,2018.00,3455.21,3000.04,3428.98,600.00,584.91,14.06,0000 0000 0000 0000 000000
2017-06-22 07:21:59,0.00,0.25,0.00,26.68,30.45,32.91,13.60,41.50,1010.25,2018.00,3455.06,3000.04,3428.98,599.94,584.88,14.11,0000 0000 0000 0000 000000
2017-06-22 07:27:00,-0.00,0.25,0.00,26.67,30.44,32.91,13.48,41.53,1010.24,2018.00,3455.04,3000.05,3428.97,599.80,584.82,14.17,0000 0000 0000 0000 000000
2017-06-22 07:32:01,0.00,0.25,0.00,26.66,30.43,32.90,13.58,41.63,1010.22,2018.00,3455.02,3000.04,3428.96,600.14,585.22,14.22,0000 0000 0000 0000 000000
2017-06-22 07:37:02,0.00,0.25,0.00,26.65,30.42,32.90,13.52,41.63,1009.85,2018.00,3455.03,3000.03,3428.96,599.63,584.58,14.27,0000 0000 0000 0000 000000
2017-06-22 07:42:04,-0.00,0.25,0.00,26.63,30.42,32.87,13.51,41.51,1009.79,2018.01,3455.08,3000.09,3428.98,599.88,584.79,14.32,0000 0000 0000 0000 000000
2017-06-22 07:47:05,0.00,0.25,0.00,26.61,30.42,32.88,13.66,41.58,1009.79,2018.00,3455.01,3000.06,3428.97,600.30,585.24,14.37,0000 0000 0000 0000 000000
2017-06-22 07:52:07,-0.00,0.24,0.00,26.60,30.40,32.87,13.58,41.59,1009.78,2018.01,3455.11,3000.28,3428.99,600.03,584.97,14.42,0000 0000 0000 0000 000000
2017-06-22 07:57:08,0.00,0.24,0.00,26.58,30.40,32.87,13.57,41.60,1009.78,2018.01,3455.16,3000.36,3428.99,599.86,584.86,14.47,0000 0000 0000 0000 000000
2017-06-22 08:02:09,-0.01,0.24,0.00,26.56,30.40,32.87,13.65,41.61,1009.78,2018.02,3455.19,3000.47,3428.99,600.02,585.04,14.52,0000 0000 0000 0000 000000
2017-06-22 08:07:11,0.00,0.24,0.00,26.53,30.38,32.86,13.54,41.57,1009.79,2018.02,3455.14,3000.45,3428.99,599.94,584.99,14.57,0000 0000 0000 0000 000000
2017-06-22 08:12:12,0.00,0.25,0.00,26.52,30.37,32.86,13.60,41.66,1009.79,2018.04,3455.00,3000.26,3428.99,600.06,585.11,14.62,0000 0000 0000 0000 000000
2017-06-22 08:17:13,0.00,0.25,0.00,26.50,30.37,32.83,13.62,41.59,1009.78,2018.09,3455.00,3000.33,3428.99,600.02,585.15,14.67,0000 0000 0000 0000 000000
2017-06-22 08:22:15,-0.00,0.25,0.00,26.47,30.35,32.83,13.66,41.66,1009.56,2018.12,3454.99,3000.35,3428.99,599.98,584.87,14.72,0000 0000 0000 0000 000000
2017-06-22 08:27:16,0.02,0.25,0.00,26.47,30.35,32.83,13.57,41.73,1009.30,2018.17,3454.96,3000.06,3428.97,599.82,584.73,14.77,0000 0000 0000 0000 000000
2017-06-22 08:32:17,0.00,0.25,0.00,26.43,30.32,32.82,13.58,41.73,1009.24,2018.14,3454.98,3000.05,3428.99,599.83,584.80,14.82,0000 0000 0000 0000 000000
2017-06-22 08:37:18,0.02,0.25,0.00,26.42,30.32,32.80,13.63,41.77,1009.06,2018.25,3454.97,3000.11,3428.99,600.01,584.91,14.87,0000 0000 0000 0000 000000
2017-06-22 08:42:20,-0.00,0.25,0.00,26.39,30.30,32.80,13.50,41.79,1008.89,2018.37,3454.97,3000.20,3428.99,599.84,584.67,14.92,0000 0000 0000 0000 000000
2017-06-22 08:47:21,0.02,0.25,0.00,26.37,30.29,32.78,13.60,41.77,1008.85,2018.58,3454.98,3000.30,3428.99,600.24,585.01,14.97,0000 0000 0000 0000 000000
2017-06-22 08:52:23,0.00,0.25,0.00,26.35,30.27,32.77,13.59,41.92,1008.82,2018.84,3454.98,3000.71,3428.99,600.27,585.09,15.02,0000 0000 0000 0000 000000
2017-06-22 08:57:24,0.00,0.25,0.00,26.32,30.26,32.75,13.61,41.86,1008.83,2018.80,3454.98,3000.64,3428.99,599.71,584.66,15.07,0000 0000 0000 0000 000000
2017-06-22 09:02:25,0.00,0.25,0.00,26.29,30.25,32.74,13.65,41.87,1008.80,2018.76,3454.98,3000.72,3428.99,599.89,584.96,15.12,0000 0000 0000 0000 000000
2017-06-22 09:07:26,0.01,0.25,0.00,26.27,30.22,32.74,13.57,41.86,1008.81,2018.89,3454.98,3000.84,3428.99,599.60,584.57,15.17,0000 0000 0000 0000 000000
2017-06-22 09:12:28,0.00,0.25,0.00,26.25,30.21,32.72,13.62,41.89,1008.81,2018.98,3454.99,3000.96,3429.03,600.24,585.22,15.22,0000 0000 0000 0000 000000
2017-06-22 09:17:29,0.00,0.25,0.00,26.21,30.20,32.69,13.52,41.88,1008.82,2018.99,3454.99,3000.99,3429.09,599.81,585.00,15.27,0000 0000 0000 0000 000000
2017-06-22 09:22:30,0.00,0.25,0.00,26.18,30.17,32.68,13.63,41.87,1008.82,2018.99,3454.99,3000.99,3429.08,600.17,585.34,15.32,0000 0000 0000 0000 000000
2017-06-22 09:27:31,-0.01,0.25,0.00,26.15,30.15,32.66,13.56,41.81,1008.96,2018.99,3454.99,3000.99,3429.33,599.46,584.75,15.37,0000 0000 0000 0000 000000
2017-06-22 09:32:33,-0.00,0.25,0.00,26.13,30.14,32.65,13.60,41.63,1008.91,2018.99,3455.01,3000.99,3429.85,599.95,585.36,15.42,0000 0000 0000 0000 000000
2017-06-22 09:37:34,0.00,0.25,0.00,26.09,30.12,32.63,13.57,41.63,1008.82,2018.99,3455.05,3001.01,3429.98,599.86,585.17,15.47,0000 0000 0000 0000 000000
2017-06-22 09:42:35,-0.01,0.25,0.00,26.05,30.10,32.60,13.63,41.52,1008.73,2019.01,3455.54,3001.30,3429.99,599.97,585.36,15.52,0000 0000 0000 0000 000000
2017-06-22 09:47:36,-0.00,0.25,0.00,26.02,30.07,32.58,13.59,41.60,1008.55,2019.02,3455.65,3001.46,3429.99,599.72,585.02,15.57,0000 0000 0000 0000 000000
2017-06-22 09:52:38,-0.01,0.25,0.00,26.00,30.05,32.56,13.61,41.72,1008.36,2019.03,3455.72,3001.68,3429.99,600.01,585.42,15.62,0000 0000 0000 0000 000000
2017-06-22 09:57:39,-0.00,0.25,0.00,25.98,30.03,32.54,13.62,41.76,1008.32,2019.12,3455.90,3001.91,3430.02,599.90,585.33,15.67,0000 0000 0000 0000 000000
2017-06-22 10:02:40,0.01,0.25,0.00,25.95,30.01,32.52,13.62,41.78,1008.32,2019.30,3455.97,3001.97,3430.07,599.98,585.27,15.72,0000 0000 0000 0000 000000
2017-06-22 10:07:42,0.03,0.25,0.00,25.92,29.99,32.50,13.57,41.57,1008.27,2019.66,3455.98,3001.99,3430.31,599.92,585.34,15.77,0000 0000 0000 0000 000000
2017-06-22 10:12:43,0.01,0.25,0.00,25.89,29.97,32.48,13.59,41.71,1007.91,2019.82,3455.99,3001.99,3430.65,600.18,585.38,15.82,0000 0000 0000 0000 000000
2017-06-22 10:17:45,0.00,0.25,0.00,25.86,29.95,32.45,13.62,41.72,1007.86,2019.91,3455.99,3001.99,3430.84,599.75,584.92,15.87,0000 0000 0000 0000 000000
2017-06-22 10:22:46,0.00,0.25,0.00,25.83,29.92,32.43,13.56,41.67,1007.83,2019.98,3455.99,3002.01,3430.97,599.94,585.21,15.92,0000 0000 0000 0000 000000
2017-06-22 10:27:47,-0.00,0.25,0.00,25.80,29.90,32.41,13.60,41.63,1007.83,2019.99,3455.99,3002.14,3430.99,599.95,585.27,15.97,0000 0000 0000 0000 000000
2017-06-22 10:32:49,-0.01,0.25,0.00,25.76,29.87,32.38,13.59,41.78,1007.80,2019.99,3456.01,3002.39,3431.00,599.74,585.00,16.02,0000 0000 0000 0000 000000
2017-06-22 10:37:50,-0.01,0.25,0.00,25.74,29.84,32.36,13.57,41.79,1007.79,2020.00,3456.13,3002.90,3431.11,599.91,585.46,16.07,0000 0000 0000 0000 000000
2017-06-22 10:42:51,-0.01,0.25,0.00,25.71,29.81,32.34,13.60,41.70,1007.85,2020.03,3456.32,3002.98,3431.54,600.02,585.51,16.12,0000 0000 0000 0000 000000
2017-06-22 10:47:53,-0.00,0.25,0.00,25.67,29.79,32.32,13.62,41.72,1007.80,2020.07,3456.51,3002.99,3431.81,599.91,585.45,16.17,0000 0000 0000 0000 000000
2017-06-22 10:52:54,0.03,0.25,0.00,25.63,29.77,32.29,13.65,41.86,1007.37,2020.40,3456.87,3002.99,3431.97,600.12,585.50,16.22,0000 0000 0000 0000 000000
2017-06-22 10:57:55,0.03,0.25,0.00,25.60,29.75,32.26,13.68,41.74,1007.34,2020.82,3456.98,3003.03,3431.99,600.09,585.56,16.27,0000 0000 0000 0000 000000
2017-06-22 11:02:57,0.00,0.25,0.00,25.57,29.71,32.24,13.65,41.77,1007.34,2020.97,3456.99,3003.35,3432.01,600.08,585.55,16.32,0000 0000 0000 0000 000000
2017-06-22 11:07:58,-0.02,0.25,0.00,25.54,29.69,32.20,13.61,41.64,1007.32,2020.99,3457.00,3003.92,3432.37,599.90,585.43,16.37,0000 0000 0000 0000 000000
2017-06-22 11:13:00,-0.00,0.25,0.00,25.51,29.66,32.17,13.62,41.67,1006.99,2020.99,3457.03,3003.99,3432.81,600.12,585.48,16.42,0000 0000 0000 0000 000000
2017-06-22 11:18:01,0.00,0.25,0.00,25.49,29.63,32.14,13.60,41.63,1006.87,2021.00,3457.30,3003.99,3432.98,599.76,585.18,16.47,0000 0000 0000 0000 000000
2017-06-22 11:23:02,0.00,0.25,0.00,25.46,29.60,32.12,13.54,41.74,1006.86,2021.02,3457.56,3004.00,3432.99,599.78,585.31,16.52,0000 0000 0000 0000 000000
2017-06-22 11:28:03,0.00,0.25,0.00,25.42,29.57,32.08,13.63,41.72,1006.85,2021.08,3457.71,3004.03,3432.99,600.01,585.51,16.58,0000 0000 0000 0000 000000
2017-06-22 11:33:04,0.04,0.25,0.00,25.39,29.54,32.05,13.72,41.78,1006.85,2021.62,3457.95,3004.37,3433.09,600.00,585.66,16.63,0000 0000 0000 0000 000000
2017-06-22 11:38:06,-0.00,0.25,0.00,25.35,29.51,32.03,13.66,41.61,1006.71,2021.94,3457.99,3004.87,3433.68,600.13,585.70,16.68,0000 0000 0000 0000 000000
2017-06-22 11:43:07,-0.00,0.25,0.00,25.32,29.48,32.00,13.64,41.62,1006.43,2021.98,3457.99,3004.99,3433.97,600.04,585.45,16.73,0000 0000 0000 0000 000000
2017-06-22 11:48:08,0.00,0.25,0.00,25.29,29.45,31.97,13.60,41.58,1006.36,2021.99,3457.99,3004.99,3433.99,599.99,585.42,16.78,0000 0000 0000 0000 000000
2017-06-22 11:53:10,0.00,0.25,0.00,25.27,29.42,31.96,13.61,41.66,1006.32,2021.99,3458.02,3004.99,3433.99,600.01,585.59,16.83,0000 0000 0000 0000 000000
2017-06-22 11:58:11,0.00,0.25,0.00,25.24,29.39,31.93,13.65,41.57,1005.93,2022.00,3458.03,3005.01,3434.00,600.09,585.43,16.88,0000 0000 0000 0000 000000
2017-06-22 12:03:12,0.02,0.25,0.00,25.19,29.36,31.90,13.66,41.52,1005.85,2022.18,3458.01,3005.07,3434.05,600.31,585.80,16.93,0000 0000 0000 0000 000000
2017-06-22 12:08:13,0.05,0.25,0.00,25.16,29.33,31.88,13.55,41.46,1005.30,2022.79,3458.00,3005.14,3434.03,599.38,584.58,16.98,0000 0000 0000 0000 000000
2017-06-22 12:13:14,0.01,0.26,0.00,25.12,29.30,31.83,13.54,41.48,1004.97,2022.96,3458.00,3005.10,3434.02,599.91,585.00,17.03,0000 0000 0000 0000 000000
2017-06-22 12:18:16,-0.00,0.26,0.00,25.08,29.27,31.80,13.60,41.41,1005.39,2022.99,3457.99,3005.31,3434.03,600.05,585.39,17.08,0000 0000 0000 0000 000000
2017-06-22 12:23:16,-0.01,0.25,0.00,25.05,29.24,31.78,13.65,41.48,1005.51,2022.99,3457.99,3005.65,3434.16,599.94,585.44,17.13,0000 0000 0000 0000 000000
2017-06-22 12:28:18,-0.01,0.25,0.00,25.02,29.21,31.77,13.65,41.45,1005.47,2023.01,3457.99,3005.89,3434.62,599.99,585.46,17.18,0000 0000 0000 0000 000000
2017-06-22 12:33:19,0.03,0.25,0.00,24.98,29.18,31.71,13.62,41.44,1004.99,2023.21,3457.99,3005.97,3434.81,599.96,585.24,17.23,0000 0000 0000 0000 000000
2017-06-22 12:38:21,0.04,0.26,0.00,24.95,29.16,31.69,13.59,41.45,1004.73,2023.79,3458.03,3005.99,3434.98,599.98,585.17,17.28,0000 0000 0000 0000 000000
2017-06-22 12:43:22,0.00,0.26,0.00,24.92,29.12,31.66,13.63,41.45,1004.83,2023.96,3458.14,3006.00,3434.99,599.83,585.18,17.33,0000 0000 0000 0000 000000
2017-06-22 12:48:23,0.00,0.26,0.00,24.89,29.10,31.63,13.62,41.36,1004.59,2023.99,3458.38,3006.02,3435.00,599.93,585.28,17.38,0000 0000 0000 0000 000000
2017-06-22 12:53:25,-0.01,0.26,0.00,24.87,29.07,31.61,13.63,41.55,1004.48,2023.99,3458.69,3006.23,3435.06,600.31,585.53,17.43,0000 0000 0000 0000 000000